Home > Weather > Burgdorf > Past weeks

Flag for Switzerland Past Weather in Burgdorf, Bern, Switzerland — Yesterday and Last 2 Weeks

Now
63 °F

Sunny.


Feels Like: 63 °F
Forecast: 61 / 85 °F
Wind: No wind

Location: Bern / Belp

Current Time: Aug 27, 2016 at 8:44:38 AM

Latest Report: Aug 27, 2016 at 7:50 AM


Visibility: 10 mi

Pressure: 30.12 "Hg (28.27 "Hg at 539m altitude)

Humidity: 88%

Dew Point: 59 °F

Location of BurgdorfLocation

Past Weather in Burgdorf — Graph

°F

Burgdorf Temperature Yesterday

Maximum temperature yesterday: 90 °F (at 3:50 PM)
Minimum temperature yesterday: 61 °F (at 3:20 AM)
Average temperature yesterday: 74 °F

High & Low Weather Summary for the Past Weeks

 TemperatureHumidityPressure
High90 °F (Aug 25, 5:20 PM)100% (Aug 13, 1:20 AM)30.39 "Hg (Aug 13, 1:20 AM)
Low45 °F (Aug 22, 6:20 AM)33% (Aug 14, 5:20 PM)29.86 "Hg (Aug 17, 4:20 PM)
Average67 °F78%30.13 "Hg
* Reported Aug 12 7:20 AM — Aug 27 7:20 AM, Burgdorf, Weather by CustomWeather, © 2016

Note: Actual official high and low records may vary slightly from our data, if they occured in-between our weather recording intervals... More about our weather records

Advertising

Burgdorf Weather History for the Previous 24 Hours

Scroll right to see more
 ConditionsComfort  
Time TempWeatherWind HumidityBarometerVisibility
7:20 AM
Sat, Aug 27
59 °FClear.3 mph94%30.12 "Hg10 mi
6:50 AM59 °FClear.3 mph94%30.12 "Hg10 mi
6:20 AM57 °FClear.2 mph100%30.12 "Hg10 mi
5:50 AM59 °FClear.2 mph94%30.12 "Hg10 mi
5:20 AM59 °FClear.1 mph94%30.12 "Hg10 mi
4:50 AM61 °FClear.1 mph94%30.12 "Hg10 mi
4:20 AM61 °FClear.1 mph94%30.12 "Hg10 mi
3:50 AM61 °FClear.1 mph94%30.12 "Hg10 mi
3:20 AM63 °FClear.1 mph88%30.12 "Hg10 mi
2:50 AM63 °FClear.1 mph88%30.12 "Hg10 mi
2:20 AM63 °FClear.1 mph88%30.12 "Hg10 mi
1:50 AM64 °FPassing clouds.3 mph83%30.12 "HgN/A
1:20 AM64 °FClear.2 mph88%30.12 "Hg10 mi
12:50 AM64 °FClear.1 mph88%30.12 "Hg10 mi
12:20 AM64 °FClear.1 mph88%30.12 "Hg10 mi
11:50 PM
Fri, Aug 26
66 °FClear.1 mph83%30.12 "Hg10 mi
11:20 PM66 °FClear.5 mph83%30.12 "Hg10 mi
10:50 PM66 °FClear.2 mph83%30.09 "Hg10 mi
10:20 PM64 °FClear.3 mph94%30.09 "Hg10 mi
9:50 PM66 °FClear.2 mph88%30.09 "Hg10 mi
9:20 PM68 °FClear.2 mph88%30.09 "Hg10 mi
8:50 PM72 °FSunny.2 mph78%30.09 "Hg10 mi
8:20 PM77 °FSunny.1 mph61%30.07 "Hg10 mi
7:50 PM84 °FSunny.6 mph43%30.07 "Hg10 mi
7:20 PM88 °FSunny.2 mph33%30.07 "Hg10 mi
6:50 PM88 °FPassing clouds.5 mph40%30.07 "HgN/A
6:20 PM88 °FPassing clouds.5 mph38%30.07 "HgN/A
5:50 PM90 °FPassing clouds.7 mph38%30.07 "HgN/A
5:20 PM90 °FPassing clouds.6 mph41%30.07 "HgN/A
4:50 PM90 °FPassing clouds.6 mph38%30.07 "HgN/A
4:20 PM90 °FPassing clouds.7 mph36%30.09 "HgN/A
3:50 PM90 °FPassing clouds.7 mph41%30.09 "HgN/A
3:20 PM88 °FPassing clouds.6 mph43%30.09 "HgN/A
2:50 PM88 °FSunny.5 mph43%30.09 "Hg10 mi
2:20 PM88 °FPassing clouds.7 mph52%30.09 "HgN/A
1:50 PM88 °FSunny.7 mph52%30.09 "Hg10 mi
1:20 PM86 °FSunny.5 mph52%30.09 "Hg10 mi
12:50 PM82 °FSunny.3 mph58%30.12 "Hg10 mi
12:20 PM82 °FSunny.2 mph55%30.12 "Hg10 mi
11:50 AM82 °FSunny.2 mph58%30.12 "Hg10 mi
11:20 AM81 °FSunny.2 mph66%30.12 "Hg10 mi
10:50 AM79 °FSunny.3 mph65%30.12 "Hg10 mi
10:20 AM77 °FPassing clouds.5 mph69%30.12 "HgN/A
9:50 AM75 °FPassing clouds.5 mph74%30.12 "HgN/A
9:20 AM72 °FSunny.7 mph83%30.12 "Hg10 mi
8:50 AM70 °FSunny.2 mph83%30.12 "Hg10 mi
8:20 AM68 °FSunny.3 mph88%30.12 "Hg10 mi
Weather by CustomWeather, © 2016

See weather overviewHow to use our weather pages